Imperial, NE

9:49 PM MDT on May 24, 2017 (GMT -0600)
Imperial Municipal

Weather History for KIML - June, 2013

Change the Weather History Date:

Wednesday, June 5, 2013

  Actual Average Record
Temperature  
Mean Temperature 58 °F 67 °F  
Max Temperature 69 °F 80 °F 100 °F (1933)
Min Temperature 47 °F 53 °F 39 °F (1998)
Degree Days  
Heating Degree Days 7 2  
Month to date heating degree days 20 12  
Since 1 June heating degree days 20 12  
Cooling Degree Days 0 4  
Month to date cooling degree days 8 18  
Year to date cooling degree days 76 62  
Since 1 June cooling degree days 8 18  
Growing Degree Days 8 (Base 50)    
Moisture  
Dew Point 46 °F    
Average Humidity 66    
Maximum Humidity 93    
Minimum Humidity 39    
Precipitation  
Precipitation 0.08 in 0.11 in 2.25 in (1967)
Snow  
Snow 0.00 in - - ()
Snow Depth -    
Sea Level Pressure  
Sea Level Pressure 30.12 in    
Wind  
Wind Speed 8 mph (North)    
Max Wind Speed 25 mph    
Max Gust Speed 35 mph    
Visibility 10 miles    
Events Rain    
T = Trace of Precipitation, MM = Missing Value Source: NWS Daily Summary

Daily Weather History Graph

Daily Weather History Graph

Search for Another Location

Airport or City:

Trip Planner

Search our weather history database for the weather conditions in past years. The results will help you decide how hot, cold, wet, or windy it might be!

Date:

Astronomy

Jun. 05, 2013 Rise Set
Actual Time 5:16 AM MDT 8:13 PM MDT
Civil Twilight 4:43 AM MDT 8:46 PM MDT
Nautical Twilight 4:02 AM MDT 9:28 PM MDT
Astronomical Twilight 3:14 AM MDT 10:16 PM MDT
Moon 3:22 AM MDT (6/5) 5:41 PM MDT (6/5)
Length of Visible Light 16h 02m
Length of Day
14h 57m
Waning Crescent, 8% of the Moon is Illuminated
Jun 5
Waning Crescent
Jun 8
New
Jun 16
First Quarter
Jun 23
Full
Jun 29
Last Quarter

Hourly Weather History & Observations

Time (MDT) Temp. Dew Point Humidity Pressure Visibility Wind Dir Wind Speed Gust Speed Precip Events Conditions
12:53 AM 57.0 °F 48.9 °F 74% 30.07 in 10.0 mi NNE 23.0 mph 31.1 mph N/A   Overcast
1:53 AM 54.0 °F 46.9 °F 77% 30.09 in 10.0 mi NNE 15.0 mph - N/A   Overcast
2:53 AM 53.1 °F 48.0 °F 83% 30.06 in 10.0 mi NNE 13.8 mph - 0.00 in   Overcast
3:21 AM 53.6 °F 48.2 °F 82% 30.12 in 10.0 mi North 18.4 mph 26.5 mph N/A   Overcast
3:36 AM 51.8 °F 48.2 °F 88% 30.11 in 10.0 mi NNE 17.3 mph - N/A   Overcast
3:53 AM 52.0 °F 48.0 °F 86% 30.09 in 10.0 mi North 17.3 mph 23.0 mph N/A   Overcast
4:46 AM 50.0 °F 46.4 °F 87% 30.15 in 10.0 mi NNE 17.3 mph - 0.00 in Rain Light Rain
4:53 AM 50.0 °F 46.0 °F 86% 30.12 in 10.0 mi NNE 17.3 mph - 0.00 in Rain Light Rain
5:15 AM 50.0 °F 46.4 °F 87% 30.17 in 10.0 mi North 19.6 mph - 0.00 in   Overcast
5:28 AM 48.2 °F 44.6 °F 87% 30.17 in 10.0 mi North 15.0 mph - 0.00 in Rain Light Rain
5:53 AM 48.9 °F 46.0 °F 90% 30.14 in 6.0 mi North 11.5 mph - 0.03 in Rain Rain
6:17 AM 48.2 °F 46.4 °F 93% 30.19 in 10.0 mi North 10.4 mph - 0.00 in   Overcast
6:53 AM 48.0 °F 45.0 °F 89% 30.16 in 10.0 mi North 13.8 mph - 0.00 in   Overcast
7:53 AM 48.9 °F 45.0 °F 86% 30.17 in 10.0 mi North 6.9 mph - 0.01 in   Overcast
8:53 AM 48.9 °F 45.0 °F 86% 30.17 in 10.0 mi North 10.4 mph - 0.04 in Rain Light Rain
9:53 AM 51.1 °F 45.0 °F 80% 30.17 in 10.0 mi North 6.9 mph - 0.00 in   Overcast
10:53 AM 52.0 °F 45.0 °F 77% 30.17 in 10.0 mi NNW 9.2 mph - N/A   Overcast
11:53 AM 55.0 °F 46.0 °F 72% 30.15 in 10.0 mi North 10.4 mph - N/A   Overcast
12:53 PM 57.9 °F 46.0 °F 65% 30.14 in 10.0 mi NNW 10.4 mph - N/A   Overcast
1:53 PM 62.1 °F 46.0 °F 56% 30.12 in 10.0 mi North 8.1 mph - N/A   Scattered Clouds
2:53 PM 64.9 °F 46.0 °F 50% 30.09 in 10.0 mi NNE 9.2 mph - N/A   Overcast
3:53 PM 66.9 °F 45.0 °F 45% 30.08 in 10.0 mi North 6.9 mph 16.1 mph N/A   Scattered Clouds
4:53 PM 68.0 °F 44.1 °F 42% 30.07 in 10.0 mi North 5.8 mph - N/A   Scattered Clouds
5:53 PM 68.0 °F 43.0 °F 40% 30.06 in 10.0 mi NE 6.9 mph - N/A   Scattered Clouds
6:53 PM 66.9 °F 41.0 °F 39% 30.07 in 10.0 mi NNW 6.9 mph - N/A   Clear
7:53 PM 63.0 °F 45.0 °F 52% 30.09 in 10.0 mi NNE 4.6 mph - N/A   Clear
8:53 PM 57.9 °F 46.0 °F 65% 30.11 in 10.0 mi Calm Calm - N/A   Clear
9:53 PM 54.0 °F 45.0 °F 72% 30.13 in 10.0 mi Calm Calm - N/A   Clear
10:53 PM 51.1 °F 45.0 °F 80% 30.14 in 10.0 mi NNE 5.8 mph - N/A   Clear
11:53 PM 50.0 °F 44.1 °F 80% 30.13 in 10.0 mi ENE 3.5 mph - N/A   Clear